[[{"header":{"parameterUnit":"m.s-1","parameterCategory":1,"la1":30.2991,"la2":30.254,"lo1":-89.0895,"lo2":-89.0444,"dy":0.0017,"dx":0.0017,"nx":28,"ny":28,"refTime":"2024-11-26T03:00:00:Z","depth":0,"parameterNumber":2,"parameterNumberName":"U-component_of_WINDS"},"data":[0,0,0,0,0,0,0,0,0,0,0,0,0,0,0,0,0,0,0,0,0,0,0,0,0,0,0,0,0,0,0,0,0,0,0,0,0,0,0,0,0,0,0,0,0,0,0,0,0,0,0,0,0,0,0,0,0,0,2.523,2.5232,0,2.5338,2.5339,2.534,2.5335,2.5334,2.5332,2.5331,2.5444,2.5448,2.5452,0,0,0,0,0,0,0,0,0,0,0,0,0,2.5023,2.5026,2.523,2.5232,2.5233,2.5338,2.5339,2.5341,2.5335,2.5334,2.5332,2.533,2.5442,2.5447,2.5453,0,0,0,0,0,0,0,0,0,0,0,0,0,2.512,2.5028,2.523,2.5243,2.5245,2.5338,2.5339,2.5341,2.5336,2.5333,2.5331,2.5329,2.544,2.5447,2.5453,2.5541,0,0,2.5474,2.5477,0,0,0,0,0,0,0,0,2.5114,2.5128,2.524,2.5242,2.5245,2.5321,2.5308,2.5408,2.5336,2.5301,2.5331,2.5328,2.5405,2.5414,2.544,2.5546,2.5551,2.5474,2.5478,2.5481,2.5483,0,0,0,0,0,0,0,2.5108,2.5123,2.5273,2.5241,2.5244,2.5244,2.5255,2.5327,2.5365,2.5304,2.5304,2.5317,2.5406,2.5433,2.5442,2.5553,2.5474,2.548,2.5484,2.5487,2.5737,2.574,0,0,0,0,0,0,2.5098,2.5117,2.527,2.5276,2.5172,2.525,2.5262,2.5299,2.5364,2.5372,2.5319,2.5316,2.5423,2.5434,2.5446,2.5553,2.5481,2.5487,2.5491,2.5734,2.5738,2.5741,0,0,0,0,0,0,2.5093,2.5111,2.5265,2.5197,2.5216,2.5256,2.5297,2.5302,2.5329,2.5375,2.5382,2.534,2.5422,2.5437,2.5517,2.5557,2.549,2.5497,2.5731,2.5735,2.5739,2.5767,0,0,0,0,0,0,2.5087,2.511,2.5143,2.5197,2.522,2.5334,2.5299,2.5306,2.5341,2.5338,2.5396,2.5404,2.5421,2.5507,2.5524,2.5565,2.5502,2.5728,2.5733,2.5738,2.5763,2.5772,2.5779,0,0,0,0,0,2.508,2.5147,2.5144,2.5163,2.5262,2.5336,2.5349,2.5367,2.5344,2.5378,2.5407,2.5402,2.555,2.5516,2.5534,2.5578,2.5726,2.5732,2.5737,2.5759,2.577,2.5779,0,0,0,0,0,0,2.5097,2.5154,2.5152,2.5239,2.5282,2.5335,2.5378,2.5377,2.5429,2.5425,2.5445,2.5459,2.5539,2.5567,2.5528,2.5666,2.5635,2.5645,2.5645,2.5656,2.5663,2.5655,2.5507,0,0,0,0,0,2.511,2.5165,2.5213,2.5284,2.5306,2.5339,2.5372,2.5381,2.5428,2.5447,2.5482,2.5528,2.5585,2.5622,2.5677,2.5767,2.578,2.5806,2.5814,2.5821,2.5829,2.5879,2.5891,2.576,2.576,2.576,0,0,2.5139,2.5177,2.5211,2.5289,2.5324,2.538,2.5354,2.5415,2.5458,2.5456,2.5534,2.5562,2.5614,2.57,2.574,2.5725,2.5868,2.5828,2.5833,2.5838,2.5886,2.5899,2.591,2.5764,2.5763,2.5763,0,0,2.522,2.5255,2.5318,2.5354,2.5407,2.5428,2.5443,2.5496,2.5514,2.5593,2.5592,2.5644,2.5742,2.5779,2.5811,2.5907,2.5905,2.5925,2.5967,2.6015,2.6026,2.6035,2.6069,2.6081,2.5933,2.5933,2.5933,0,2.525,2.5334,2.5351,2.5413,2.5447,2.5448,2.5513,2.5547,2.5615,2.564,2.5622,2.5745,2.578,2.5875,2.5898,2.5924,2.5943,2.5918,2.6023,2.6032,2.6041,2.6074,2.6087,2.5935,2.5935,2.5935,2.5934,0,2.5368,2.5427,2.5472,2.5537,2.5577,2.564,2.5667,2.5706,2.5712,2.5735,2.5816,2.5858,2.5922,2.5945,2.5953,2.6041,2.6031,2.6018,2.5987,2.6055,2.6087,2.61,2.5938,2.5937,2.5937,2.5936,0,0,2.5462,2.5536,2.5553,2.5582,2.5641,2.5688,2.5751,2.5812,2.5845,2.5893,2.5947,2.6029,2.6018,2.6054,2.6066,2.6109,2.6182,2.6091,2.6092,2.6106,2.6283,2.6291,2.6306,2.6181,2.6183,2.6185,2.6278,0,2.5549,2.5661,2.5678,2.5776,2.5831,2.5833,2.5888,2.5931,2.5954,2.6005,2.6031,2.609,2.607,2.6092,2.6134,2.6164,2.6218,2.6158,2.6232,2.6234,2.6218,2.6322,2.6332,2.6417,2.629,2.6293,2.6294,0,2.5666,2.5716,2.5819,2.5871,2.5895,2.5944,2.6002,2.605,2.6099,2.6113,2.6154,2.616,2.6227,2.6193,2.6286,2.6245,2.6276,2.6295,2.6299,2.6306,2.6268,2.6332,2.6445,2.6458,2.6314,2.6312,2.6311,0,2.5724,2.5817,2.5891,2.5917,2.5979,2.6014,2.6041,2.6088,2.6124,2.6175,2.6198,2.6257,2.6289,2.6334,2.6357,2.633,2.6448,2.6416,2.6462,2.6461,2.6486,2.6484,2.6605,2.6507,2.6507,2.6507,2.6506,0,2.5819,2.5882,2.5918,2.5964,2.6035,2.6055,2.6125,2.6152,2.6193,2.6245,2.625,2.6298,2.6325,2.6378,2.6396,2.647,2.6485,2.6498,2.6502,2.6498,2.6496,2.6518,2.6513,2.651,2.6509,2.6509,2.6508,0,2.5896,2.5922,2.6003,2.6055,2.607,2.612,2.6165,2.621,2.6233,2.6298,2.6315,2.6352,2.6414,2.6441,2.6518,2.653,2.6615,2.6615,2.6598,2.6599,2.6644,2.6639,2.6783,2.6803,2.6692,2.6693,2.6694,0,2.5954,2.6003,2.6061,2.6095,2.6123,2.6179,2.6216,2.6238,2.6276,2.6335,2.6373,2.6435,2.6486,2.6585,2.6619,2.6678,2.6679,2.6726,2.6688,2.6682,2.668,2.6677,2.6682,2.6733,2.6734,2.6735,2.6735,0,2.6056,2.6067,2.6119,2.6176,2.6219,2.6265,2.631,2.6338,2.6368,2.641,2.6473,2.6513,2.6591,2.6653,2.6714,2.6743,2.6745,2.6747,2.6761,2.6756,2.6744,2.6751,2.6616,2.6744,2.6743,2.6742,2.6742,2.6741,2.6125,2.6168,2.6216,2.6274,2.631,2.6352,2.6397,2.6426,2.6479,2.6543,2.6554,2.6621,2.6669,2.6751,2.6783,2.6837,2.6826,2.6845,2.685,2.6855,2.6857,2.6736,2.6848,2.6848,2.6848,2.6848,2.6848,0,2.6226,2.6257,2.631,2.6373,2.6419,2.6416,2.6466,2.6504,2.6564,2.6608,2.6658,2.6731,2.6791,2.683,2.6891,2.6927,2.6929,2.6942,2.6939,2.6946,2.6864,2.6846,2.6939,2.6939,2.6939,2.6939,2.6939,2.6939,2.6285,2.6358,2.6374,2.6466,2.6496,2.6562,2.6591,2.663,2.6666,2.6747,2.6796,2.6821,2.6864,2.6928,2.6984,2.6994,2.7016,2.7029,2.7039,2.6962,2.6952,2.6943,2.6926,2.7034,2.7034,2.7116,2.7117,2.7118]},{"header":{"parameterUnit":"m.s-1","parameterCategory":1,"la1":30.2991,"la2":30.254,"lo1":-89.0895,"lo2":-89.0444,"dy":0.0017,"dx":0.0017,"nx":28,"ny":28,"refTime":"2024-11-26T03:00:00:Z","depth":0,"parameterNumber":3,"parameterNumberName":"V-component_of_WINDS"},"data":[0,0,0,0,0,0,0,0,0,0,0,0,0,0,0,0,0,0,0,0,0,0,0,0,0,0,0,0,0,0,0,0,0,0,0,0,0,0,0,0,0,0,0,0,0,0,0,0,0,0,0,0,0,0,0,0,0,0,2.5662,2.5663,0,2.5748,2.5748,2.5749,2.5749,2.5748,2.5747,2.5745,2.5832,2.5836,2.5839,0,0,0,0,0,0,0,0,0,0,0,0,0,2.5497,2.55,2.5662,2.5663,2.5664,2.5747,2.5749,2.575,2.5749,2.5748,2.5746,2.5745,2.5831,2.5835,2.5839,0,0,0,0,0,0,0,0,0,0,0,0,0,2.5574,2.5501,2.5661,2.5674,2.5675,2.5747,2.5749,2.575,2.5749,2.5748,2.5746,2.5744,2.583,2.5835,2.584,2.5905,0,0,2.5855,2.5858,0,0,0,0,0,0,0,0,2.557,2.558,2.5671,2.5673,2.5675,2.5736,2.5722,2.5802,2.575,2.5721,2.5745,2.5743,2.5802,2.5809,2.5829,2.5909,2.5913,2.5856,2.5859,2.5861,2.5862,0,0,0,0,0,0,0,2.5564,2.5576,2.5696,2.5672,2.5675,2.5675,2.5684,2.5737,2.577,2.5724,2.5724,2.5734,2.5802,2.5824,2.5831,2.5914,2.5856,2.586,2.5863,2.5865,2.6053,2.6055,0,0,0,0,0,0,2.5556,2.5572,2.5693,2.5698,2.5617,2.5679,2.5689,2.5718,2.5769,2.5775,2.5735,2.5734,2.5816,2.5825,2.5834,2.5914,2.5861,2.5866,2.5869,2.6051,2.6053,2.6055,0,0,0,0,0,0,2.5553,2.5567,2.5689,2.5635,2.5651,2.5684,2.5716,2.5721,2.5742,2.5778,2.5784,2.5751,2.5815,2.5827,2.5888,2.5917,2.5868,2.5873,2.6049,2.6052,2.6054,2.6075,0,0,0,0,0,0,2.5548,2.5566,2.5591,2.5636,2.5654,2.5742,2.5718,2.5723,2.5751,2.5749,2.5795,2.58,2.5815,2.588,2.5893,2.5923,2.5877,2.6046,2.605,2.6053,2.6072,2.6078,2.6083,0,0,0,0,0,2.5542,2.5593,2.5592,2.5607,2.5686,2.5744,2.5754,2.5769,2.5753,2.5779,2.5802,2.5799,2.5912,2.5886,2.59,2.5933,2.6044,2.6049,2.6053,2.6069,2.6077,2.6083,0,0,0,0,0,0,2.5551,2.5599,2.5599,2.5666,2.5701,2.5743,2.5776,2.5777,2.5817,2.5814,2.5831,2.5842,2.5903,2.5924,2.5895,2.5999,2.5976,2.5983,2.5983,2.5991,2.5997,2.5991,2.5881,0,0,0,0,0,2.5561,2.5604,2.5643,2.5699,2.5716,2.5743,2.5769,2.5778,2.5815,2.5829,2.5857,2.5893,2.5936,2.5964,2.6006,2.6074,2.6084,2.6103,2.6109,2.6114,2.6121,2.6159,2.6168,2.607,2.607,2.607,0,0,2.5581,2.5613,2.5639,2.5701,2.5729,2.5774,2.5756,2.5803,2.5836,2.5837,2.5896,2.5918,2.5958,2.6023,2.6053,2.6043,2.615,2.612,2.6123,2.6127,2.6164,2.6173,2.6182,2.6073,2.6072,2.6072,0,0,2.5641,2.5669,2.5719,2.5747,2.579,2.5808,2.582,2.5863,2.5877,2.5937,2.5939,2.5978,2.6052,2.6082,2.6106,2.6178,2.6177,2.6191,2.6222,2.6259,2.6267,2.6274,2.63,2.6309,2.6197,2.6197,2.6197,0,2.5661,2.5728,2.5744,2.5792,2.582,2.5822,2.5872,2.5899,2.5954,2.5973,2.596,2.6054,2.6081,2.6153,2.6171,2.619,2.6205,2.6186,2.6265,2.6272,2.6278,2.6304,2.6314,2.6198,2.6198,2.6198,2.6198,0,2.5751,2.5798,2.5833,2.5886,2.5917,2.5966,2.5989,2.6019,2.6025,2.6044,2.6105,2.6138,2.6187,2.6205,2.6211,2.6278,2.627,2.6261,2.6238,2.6289,2.6313,2.6323,2.6201,2.62,2.62,2.6199,0,0,2.582,2.5881,2.5893,2.5918,2.5966,2.6002,2.6051,2.6099,2.6125,2.6162,2.6204,2.6267,2.6259,2.6287,2.6296,2.6328,2.6384,2.6315,2.6316,2.6328,2.6461,2.6468,2.6479,2.6383,2.6385,2.6387,2.6458,0,2.5885,2.5973,2.5989,2.6065,2.6109,2.6112,2.6155,2.6189,2.6208,2.6247,2.6268,2.6313,2.6298,2.6315,2.6347,2.637,2.6411,2.6365,2.6423,2.6424,2.6413,2.6492,2.65,2.6565,2.6467,2.6469,2.647,0,2.5974,2.6015,2.6096,2.6138,2.6157,2.6196,2.6242,2.6279,2.6318,2.6329,2.6361,2.6366,2.6417,2.6392,2.6463,2.6431,2.6455,2.647,2.6473,2.648,2.6451,2.6501,2.6586,2.6597,2.6485,2.6483,2.6482,0,2.6017,2.6092,2.615,2.6171,2.6221,2.6249,2.6271,2.6308,2.6336,2.6376,2.6394,2.6439,2.6464,2.6499,2.6517,2.6496,2.6586,2.6562,2.6598,2.6597,2.6617,2.6616,2.6708,2.6631,2.6631,2.6631,2.6631,0,2.609,2.6139,2.617,2.6206,2.6262,2.6279,2.6334,2.6356,2.6389,2.6429,2.6434,2.6471,2.6492,2.6533,2.6547,2.6604,2.6614,2.6625,2.6629,2.6626,2.6624,2.6642,2.6639,2.6633,2.6633,2.6632,2.6632,0,2.6147,2.617,2.6234,2.6277,2.6289,2.6328,2.6365,2.64,2.6419,2.647,2.6483,2.6512,2.6561,2.6582,2.6641,2.665,2.6715,2.6715,2.6703,2.6704,2.6739,2.6736,2.6847,2.6863,2.6774,2.6775,2.6776,0,2.6192,2.6231,2.6278,2.6306,2.6329,2.6374,2.6403,2.6421,2.6451,2.6498,2.6528,2.6576,2.6616,2.6693,2.6719,2.6764,2.6766,2.6801,2.6772,2.6768,2.6767,2.6765,2.677,2.6807,2.6808,2.6809,2.6809,0,2.6271,2.628,2.6322,2.6369,2.6403,2.644,2.6477,2.6499,2.6523,2.6556,2.6606,2.6637,2.6698,2.6746,2.6793,2.6816,2.6817,2.6818,2.6829,2.6827,2.6818,2.6824,2.6718,2.6816,2.6815,2.6815,2.6814,2.6814,2.6324,2.6359,2.6398,2.6445,2.6474,2.6508,2.6544,2.6567,2.6609,2.6661,2.6669,2.6722,2.676,2.6823,2.6847,2.6889,2.688,2.6896,2.69,2.6904,2.6906,2.6811,2.6898,2.6897,2.6897,2.6897,2.6897,0,2.6403,2.6429,2.6472,2.6523,2.656,2.6558,2.6598,2.6629,2.6676,2.6712,2.6751,2.6808,2.6855,2.6885,2.6933,2.696,2.6962,2.6972,2.6971,2.6976,2.6911,2.6897,2.697,2.697,2.697,2.697,2.697,2.697,2.6449,2.6508,2.6522,2.6596,2.6621,2.6674,2.6697,2.6728,2.6757,2.6821,2.686,2.688,2.6913,2.6963,2.7006,2.7014,2.7031,2.7042,2.7049,2.6988,2.6981,2.6973,2.6961,2.7045,2.7046,2.7111,2.7112,2.7112]}]]